Regional Weather Roundup
Issued by NWS

Home | Current Version | Previous Version | Text Only | Print | Product List | Glossary On
Versions: 1 2 3 4 5 6 7 8 9 10 11 12 13 14 15 16 17 18 19 20 21 22 23 24 25 26 27 28 29 30 31 32 33 34 35 36 37 38 39 40 41 42 43 44 45 46 47 48 49 50
000
ASUS43 KDMX 291206
RWRIA

WEATHER ROUNDUP FOR IOWA
NATIONAL WEATHER SERVICE DES MOINES IA
700 AM CDT MON MAY 29 2017

NOTE: "FAIR" INDICATES FEW OR NO CLOUDS BELOW 12,000 FEET WITH NO
SIGNIFICANT WEATHER AND/OR OBSTRUCTIONS TO VISIBILITY.

* - THESE STATIONS ARE NOT NWS STATIONS...THUS NOT UNDER NWS
QUALITY CONTROL.  THEY ALSO DO NOT REPORT WEATHER SUCH
AS PRECIPITATION OR FOG.

IAZ001>003-012>014-020>022-031>034-043>046-291300-
   NORTHWEST IOWA

CITY           SKY/WX    TMP DP  RH WIND       PRES   REMARKS
CARROLL *      MOSUNNY   57  48  72 W8        29.94R
CHEROKEE *     SUNNY     49  46  89 CALM      29.94R
DENISON *      SUNNY     48  46  93 CALM      29.97R
LE MARS *      SUNNY     54  46  76 W6        29.96R
ORANGE CITY *  SUNNY     52  46  82 NW8       29.94R
SHELDON *      SUNNY     54  45  71 NW12      29.91R
SIOUX CITY     SUNNY     50  47  89 SW5       29.96R
6HR MIN TEMP:  46; 6HR MAX TEMP:  55;

SPENCER        SUNNY     53  46  77 W10       29.91R
6HR MIN TEMP:  48; 6HR MAX TEMP:  53;

STORM LAKE *   MOSUNNY   52  43  71 W7        29.93R
$$

IAZ055>058-069>071-079>083-090>094-291300-
   SOUTHWEST IOWA

CITY           SKY/WX    TMP DP  RH WIND       PRES   REMARKS
ATLANTIC *     PTSUNNY   52  48  87 CALM      29.96R
AUDUBON *        N/A     50  46  87 CALM      29.96R
CLARINDA *     MOSUNNY   63  46  55 N6G13     29.96S
COUNCIL BLFS * MOSUNNY   55  48  76 W5        29.97R
CRESTON *      MOSUNNY   55  48  76 NW7       29.94S
HARLAN  *      MOSUNNY   54  48  82 CALM      30.00R
LAMONI         PTSUNNY   59  48  67 W7        29.93R
6HR MIN TEMP:  56; 6HR MAX TEMP:  61;

RED OAK *      MOSUNNY   59  46  63 NW8G15    29.95R
SHENANDOAH *   SUNNY     61  48  63 CALM      29.96R
$$

IAZ047>049-059>061-072>074-084-291300-
   CENTRAL IOWA

CITY           SKY/WX    TMP DP  RH WIND       PRES   REMARKS
AMES           PTSUNNY   56  49  77 W6        29.91R
6HR MIN TEMP:  48; 6HR MAX TEMP:  56;

ANKENY *       MOSUNNY   55  50  82 W6        29.92S
BOONE *        CLOUDY    57 N/A N/A NW8       29.91R
CHARITON *     CLOUDY    55  52  88 W3        29.92S
DES MOINES     MOSUNNY   57  48  72 NW6       29.92R
6HR MIN TEMP:  57; 6HR MAX TEMP:  61;

GRINNELL*      MOSUNNY   55  47  75 NW7       29.91R
KNOXVILLE *    CLOUDY    57  50  77 NW7       29.90R
MARSHALLTOWN   PTSUNNY   54  48  80 W7        29.89R
6HR MIN TEMP:  51; 6HR MAX TEMP:  57;

NEWTON *       MOSUNNY   59  46  63 NW12      29.90R
PELLA *        CLOUDY    57  50  77 NW3       29.92R
PERRY *        PTSUNNY   53  49  86 W7        29.93R
$$

IAZ004>006-015-016-023>025-035-036-291300-
   NORTH CENTRAL IOWA

CITY           SKY/WX    TMP DP  RH WIND       PRES   REMARKS
ALGONA *       SUNNY     55  46  71 W13       29.91R
CLARION *      SUNNY     55  46  71 W12       29.91R
ESTHERVILLE    SUNNY     52  47  83 W10       29.88R
6HR MIN TEMP:  49; 6HR MAX TEMP:  54;

FORT DODGE *   MOSUNNY   52  45  76 SW6       29.93R
MASON CITY     SUNNY     53  44  71 W9        29.89R
6HR MIN TEMP:  50; 6HR MAX TEMP:  57;

FOREST CITY *    N/A     55  39  54 W8        29.88R
WEBSTER CITY * SUNNY     55  46  71 W8        29.90R
IOWA FALLS *     N/A     57  47  69 W13       29.91R
$$

IAZ007>011-017>019-026>030-037>042-050>054-066-291300-
   NORTHEAST IOWA

CITY           SKY/WX    TMP DP  RH WIND       PRES   REMARKS
CEDAR RAPIDS   MOSUNNY   56  49  77 W7        29.87R
6HR MIN TEMP:  50; 6HR MAX TEMP:  59; 6HR PCP: TRACE;

CHARLES CITY * SUNNY     55  45  67 SW10      29.87S
CLINTON *      MOSUNNY   58  52  80 W10       29.85S
DECORAH *      SUNNY     54  46  76 W9G15     29.83R
DUBUQUE        CLOUDY    55  47  74 W9        29.84R
6HR MIN TEMP:  51; 6HR MAX TEMP:  58; 6HR PCP: TRACE;

MONTICELLO *   CLOUDY    57  48  72 W6        29.85S
OELWEIN *      MOSUNNY   57  46  67 W10       29.87R
WATERLOO       SUNNY     58  44  60 W9        29.87R
6HR MIN TEMP:  53; 6HR MAX TEMP:  62;

$$

IAZ064-065-067-068-078-291300-
   EAST CENTRAL IOWA

CITY           SKY/WX    TMP DP  RH WIND       PRES   REMARKS
DAVENPORT      MOSUNNY   58  50  75 W8        29.86R
6HR MIN TEMP:  54; 6HR MAX TEMP:  60;

IOWA CITY      LGT RAIN  58  49  72 W3        29.89R
6HR MIN TEMP:  55; 6HR MAX TEMP:  58; 6HR PCP: TRACE;

MT. PLEASANT * CLOUDY    60  47  63 W9        29.88R
MUSCATINE *    CLOUDY    59  50  72 NW12      29.89R
QUAD CITIES    SUNNY     60  50  69 SW3       29.84F
6HR MIN TEMP:  54; 6HR MAX TEMP:  62;

$$

IAZ062-063-075>077-085>089-095>099-291300-
   SOUTHEAST IOWA

CITY           SKY/WX    TMP DP  RH WIND       PRES   REMARKS
BURLINGTON     CLOUDY    60  50  69 NW8       29.87R
6HR MIN TEMP:  53; 6HR MAX TEMP:  63;

FAIRFIELD *    MOSUNNY   59  48  67 W10       29.90R
FORT MADISON * PTSUNNY   59  52  77 NW6       29.89R
KEOKUK *       SUNNY     59  52  77 SW6       29.86S
OSKALOOSA *    LGT RAIN  57  50  78 NW10      29.91R
CENTERVILLE *    N/A     59  46  63 W13       29.93R
OTTUMWA        CLOUDY    58  49  72 W8        29.91R
6HR MIN TEMP:  54; 6HR MAX TEMP:  60;

WASHINGTON *   CLOUDY    57  50  77 NW7       29.89R
$$

ABBREVIATIONS USED IN REMARKS
   TC - TEMPERATURES IN CELSIUS
  WCI - WIND CHILL INDEX
   HX - HEAT INDEX
  VSB - VISIBILITY
$$





USA.gov is the U.S. government's official web portal to all federal, state and local government web resources and services.